FW6176 Weather Reports


Display with metric or nautical units.
time (UTC)temp
F
wind
direction
speed
MPH
gust
MPH
rain 1hr
in
rain 24hr
in
rain mn
in
humidity
%
barometer
mb
20260509041504 58 135 0.0 1.0 0.06 0.20 0.20 89 1008.4
20260509040004 58 19 0.0 2.0 0.09 0.20 0.20 89 1008.8
20260509034511 59 128 0.0 1.0 0.14 0.19 0.19 88 1008.8
20260509033003 59 176 0.0 0.0 0.14 0.17 0.17 88 1009.0
20260509031502 59 176 0.0 0.0 0.14 0.14 0.14 88 1009.1
20260509030002 59 302 1.0 6.0 0.11 0.11 0.11 86 1009.2
20260509024559 60 327 2.0 9.0 0.06 0.06 0.06 85 1009.5
20260509023058 61 319 3.0 7.0 0.03 0.03 0.03 82 1009.4
20260509021559 61 321 1.0 5.0 0.00 0.00 0.00 81 1009.2
20260509020056 61 290 1.0 3.0 0.00 0.00 0.00 80 1009.0
20260509014556 61 314 0.0 1.0 0.00 0.00 0.00 80 1008.5
20260509013057 61 135 0.0 2.0 0.00 0.00 0.00 79 1008.2
20260509011554 61 328 0.0 1.0 0.00 0.00 0.00 78 1007.8
20260509010053 62 40 0.0 3.0 0.00 0.00 0.00 77 1008.0
20260509004608 62 57 0.0 4.0 0.00 0.00 0.00 75 1008.0
20260509003051 64 345 3.0 7.0 0.00 0.00 0.00 72 1008.6
20260509001553 66 322 3.0 9.0 0.00 0.00 0.00 66 1008.3
20260509000047 68 334 3.0 6.0 0.00 0.00 0.00 61 1008.1
20260508234547 69 293 2.0 6.0 0.00 0.00 0.00 58 1008.0
20260508233046 69 333 3.0 7.0 0.00 0.00 0.00 57 1008.0
20260508231545 70 305 1.0 5.0 0.00 0.00 0.00 56 1008.0
20260508230044 71 304 1.0 4.0 0.00 0.00 0.00 55 1008.1
20260508224550 71 329 2.0 6.0 0.00 0.00 0.00 54 1008.0
20260508223049 72 296 3.0 10.0 0.00 0.00 0.00 53 1007.9
20260508221544 72 281 4.0 8.0 0.00 0.00 0.00 51 1008.0
20260508220044 73 298 4.0 7.0 0.00 0.00 0.00 49 1008.1
20260508214556 73 287 5.0 9.0 0.00 0.00 0.00 49 1008.2
20260508213038 74 297 4.0 9.0 0.00 0.00 0.00 47 1008.5
20260508211536 74 289 2.0 6.0 0.00 0.00 0.00 45 1008.7
20260508210037 75 327 3.0 8.0 0.00 0.00 0.00 45 1008.7
20260508204536 75 288 0.0 6.0 0.00 0.00 0.00 48 1009.0
20260508203033 75 312 1.0 5.0 0.00 0.00 0.00 46 1009.1
20260508201532 76 250 1.0 3.0 0.00 0.00 0.00 48 1009.2
20260508200035 75 110 0.0 5.0 0.00 0.00 0.00 48 1009.4
20260508194528 76 81 0.0 5.0 0.00 0.00 0.00 48 1009.5
20260508193025 74 254 1.0 4.0 0.00 0.00 0.00 50 1009.4
20260508191522 72 288 0.0 3.0 0.00 0.00 0.00 53 1009.7
20260508190038 72 52 0.0 3.0 0.00 0.00 0.00 52 1009.8
20260508184529 71 264 0.0 1.0 0.00 0.00 0.00 52 1009.8
20260508183031 71 101 0.0 4.0 0.00 0.00 0.00 50 1009.7
20260508181518 71 289 0.0 8.0 0.00 0.00 0.00 52 1009.8
20260508180013 69 252 0.0 3.0 0.00 0.00 0.00 52 1010.4
20260508174512 70 254 0.0 3.0 0.00 0.00 0.00 51 1010.4
20260508173009 70 260 0.0 3.0 0.00 0.00 0.00 52 1010.6
20260508171506 69 242 0.0 3.0 0.00 0.00 0.00 54 1011.1
20260508170004 68 235 0.0 3.0 0.00 0.00 0.00 56 1011.2
20260508164503 66 56 0.0 4.0 0.00 0.00 0.00 57 1011.3
20260508163059 65 240 0.0 2.0 0.00 0.00 0.00 58 1011.8
20260508161606 64 269 0.0 2.0 0.00 0.00 0.00 58 1012.1
20260508160058 64 84 0.0 2.0 0.00 0.00 0.00 58 1012.0
20260508154558 65 35 0.0 4.0 0.00 0.00 0.00 56 1012.2
20260508153059 65 294 0.0 5.0 0.00 0.00 0.00 54 1012.2
20260508151556 66 62 0.0 4.0 0.00 0.00 0.00 54 1011.9
20260508150054 66 325 0.0 5.0 0.00 0.00 0.00 52 1012.2
20260508144554 67 10 0.0 7.0 0.00 0.00 0.00 51 1012.6
20260508143058 68 62 0.0 4.0 0.00 0.00 0.00 51 1012.9
20260508141603 68 261 0.0 4.0 0.00 0.00 0.00 53 1012.8
20260508140047 63 296 0.0 3.0 0.00 0.00 0.00 60 1012.8
20260508134544 62 108 0.0 3.0 0.00 0.00 0.00 63 1012.7
20260508133040 60 76 0.0 2.0 0.00 0.00 0.00 63 1012.7
20260508131536 59 100 0.0 2.0 0.00 0.00 0.00 64 1012.7
20260508130038 58 105 0.0 3.0 0.00 0.00 0.00 65 1012.6
20260508124536 58 101 0.0 2.0 0.00 0.00 0.00 64 1012.6
20260508123032 58 167 0.0 3.0 0.00 0.00 0.00 63 1012.4
20260508121531 57 124 0.0 2.0 0.00 0.00 0.00 64 1012.4
20260508120030 56 115 0.0 1.0 0.00 0.00 0.00 63 1012.6
20260508114531 54 118 0.0 1.0 0.00 0.00 0.00 67 1012.6
20260508113028 52 116 0.0 1.0 0.00 0.00 0.00 68 1012.4
20260508111527 52 96 0.0 1.0 0.00 0.00 0.00 68 1012.4
20260508110030 52 161 0.0 1.0 0.00 0.00 0.00 67 1012.4
20260508104529 52 123 0.0 2.0 0.00 0.00 0.00 66 1012.4
20260508103033 52 151 0.0 2.0 0.00 0.00 0.00 66 1012.4
20260508101523 52 131 0.0 1.0 0.00 0.00 0.00 67 1012.4
20260508100022 52 50 0.0 2.0 0.00 0.00 0.00 67 1012.4
20260508094523 52 56 0.0 3.0 0.00 0.00 0.00 68 1012.4
20260508093033 51 108 0.0 1.0 0.00 0.00 0.00 68 1012.6
20260508091530 51 112 0.0 1.0 0.00 0.00 0.00 68 1012.7
20260508090017 52 145 0.0 0.0 0.00 0.00 0.00 67 1012.6
20260508084517 52 125 0.0 1.0 0.00 0.00 0.00 65 1012.5
20260508083013 53 131 0.0 1.0 0.00 0.00 0.00 64 1012.5
20260508081513 53 87 0.0 1.0 0.00 0.00 0.00 63 1012.5
20260508080011 53 142 0.0 1.0 0.00 0.00 0.00 63 1012.7
20260508074511 54 153 0.0 1.0 0.00 0.00 0.00 62 1012.7
20260508073008 54 172 0.0 0.0 0.00 0.00 0.00 61 1012.7
20260508071510 55 105 0.0 1.0 0.00 0.00 0.00 60 1012.9
20260508070002 55 102 0.0 1.0 0.00 0.00 0.00 60 1013.0
20260508064559 55 101 0.0 2.0 0.00 0.00 0.00 59 1013.2
20260508063104 56 118 0.0 1.0 0.00 0.00 0.00 58 1013.4
20260508061553 56 124 0.0 1.0 0.00 0.00 0.00 56 1013.6
20260508060050 57 110 0.0 1.0 0.00 0.00 0.00 55 1013.7
20260508054548 58 144 0.0 2.0 0.00 0.00 0.00 53 1013.8
20260508053053 58 131 0.0 3.0 0.00 0.00 0.00 52 1013.9
20260508051545 58 89 0.0 1.0 0.00 0.00 0.00 51 1013.7
20260508050044 58 209 0.0 2.0 0.00 0.00 0.00 51 1013.7
20260508044543 59 248 0.0 2.0 0.00 0.00 0.00 51 1013.8
20260508043055 59 146 0.0 2.0 0.00 0.00 0.00 51 1013.7